User: anonymous   Login
Location: Bannatyne
(13.0833°N, 59.5333°W)
Time: 20:13:26
(UTC+00:00)
Language:

Courier 1B Rocket - Orbit

View from above orbital plane
View from above orbital plane
View from above satellite
View from above satellite

Ground track
Ground track

The orbit data is extracted from the following two-line orbital elements,

1    59U 60013B   20020.94294436 +.00000126 +00000-0 +51000-4 0  9998
2    59 028.2471 261.0710 0189224 119.7265 242.2251 13.52973600926476
Epoch (UTC): 20 January 2020 22:37:50
Eccentricity: 0.0189224
inclination: 28.2471°
perigee height: 920 km
apogee height: 1202 km
right ascension of ascending node: 261.0710°
argument of perigee: 119.7265°
revolutions per day: 13.52973600
mean anomaly at epoch: 242.2251°
orbit number at epoch: 92647

The dashed part of the orbit path shows where the satellite is in the earth's shadow,  

DLR